Regional Weather Roundup
Issued by NWS Nashville, TN

Home | Current Version | Previous Version | Text Only | Print | Product List | Glossary On
Versions: 1 2 3 4 5 6 7 8 9 10 11 12 13 14 15 16 17 18 19 20 21 22 23 24 25 26 27 28 29 30 31 32 33 34 35 36 37 38 39 40 41 42 43 44 45 46 47 48 49 50
000
ASUS44 KOHX 070110
RWROHX
MIDDLE TENNESSEE HOURLY WEATHER ROUNDUP
NATIONAL WEATHER SERVICE NASHVILLE TN
700 PM CST SAT FEB 06 2016

NOTE: "FAIR" INDICATES FEW OR NO CLOUDS BELOW 12,000 FEET WITH
NO SIGNIFICANT WEATHER AND/OR OBSTRUCTIONS TO VISIBILITY.

* THESE REPORTS ARE NOT UNDER NWS QUALITY CONTROL AND MAY NOT
  REPORT WEATHER SUCH AS PRECIPITATION AND FOG.


TNZ005>011-023>034-057-059-062>066-078-080-070200
...NORTHERN MIDDLE TENNESSEE...

CITY           SKY/WX    TMP DP  RH WIND       PRES   REMARKS
CLARKSVILLE    CLEAR     47  20  34 SW5       30.29R
CROSSVILLE     PTCLDY    37  18  46 CALM      30.26S
DICKSON        CLEAR     39  21  48 CALM      30.28R
LEBANON        PTCLDY    39  25  58 CALM      30.27S
LIVINGSTON     CLEAR     42  19  40 SW3       30.27S
NASHVILLE      MOCLDY    44  18  35 CALM      30.30R
PORTLAND       PTCLDY   N/A N/A N/A S3        30.27S
ROCKWOOD       CLOUDY    38  19  46 CALM      30.25F
SMYRNA         PTCLDY    40  28  62 CALM      30.31R
SPARTA         CLEAR     37  34  87 CALM      30.26S
$$
TNZ056-058-060-061-075>077-079-093>097-070200
...SOUTHERN MIDDLE TENNESSEE...

CITY           SKY/WX    TMP DP  RH WIND       PRES   REMARKS
COLUMBIA       CLEAR     41  27  56 SE3       30.27S
FAYETTEVILLE   CLOUDY    43  21  42 N3        30.28S
LEWISBURG      MOCLDY    36  29  76 CALM      30.28F
MCMINNVILLE    CLEAR     37  27  65 CALM      30.27S
SHELBYVILLE    CLOUDY    37  30  75 CALM      30.29S
TULLAHOMA      CLEAR     36  25  64 CALM      30.28S
WINCHESTER     CLOUDY    37  27  65 CALM      30.28S
$$


...KEY TO REMARKS...
VSB - VISIBILITY IN MILES
WCI - WIND CHILL INDEX
HX  - HEAT INDEX




USA.gov is the U.S. government's official web portal to all federal, state and local government web resources and services.